Hourly Data Report for February 24, 2006

TORONTO CITY
ONTARIO

43°40'00.000" N
79°24'00.000" W
112.50 m
6158355
71508
XTO

Download Data

Hourly Data (February 2006)
Hourly Data Report for February 24, 2006
TIME
LST
Temp Definition
°C
Dew Point Definition
°C
Rel Hum Definition
%
Precip. Amount Definition
mm

Wind Dir Definition
10's deg

Wind Spd Definition
km/h
Visibility Definition
km
Stn Press Definition
kPa
Hmdx Definition


Wind Chill Definition


Weather Definition


00:00 -2.7 -9.2 61   LegendMM LegendMM   99.90     LegendNANA
01:00 -3.6 -9.7 63   LegendMM LegendMM   100.04     LegendNANA
02:00 -3.9 -10.2 62   LegendMM LegendMM   100.15     LegendNANA
03:00 -4.4 -9.3 69   LegendMM LegendMM   100.26     LegendNANA
04:00 -4.8 -8.3 76   LegendMM LegendMM   100.39     LegendNANA
05:00 -4.9 -9.4 71   LegendMM LegendMM   100.55     LegendNANA
06:00 -6.0 -15.3 48   LegendMM LegendMM   100.70     LegendNANA
07:00 -6.4 -15.5 48   LegendMM LegendMM   100.89     LegendNANA
08:00 -6.2 -13.5 56   LegendMM LegendMM   101.06     LegendNANA
09:00 -5.6 -12.0 61   LegendMM LegendMM   101.16     LegendNANA
10:00 -4.6 -9.0 71   LegendMM LegendMM   101.25     LegendNANA
11:00 -3.1 -9.4 62   LegendMM LegendMM   101.31     LegendNANA
12:00 -1.7 -11.0 49   LegendMM LegendMM   101.35     LegendNANA
13:00 -0.7 -11.2 45   LegendMM LegendMM   101.31     LegendNANA
14:00 -0.6 -13.1 38   LegendMM LegendMM   101.27     LegendNANA
15:00 -0.7 -13.5 37   LegendMM LegendMM   101.26     LegendNANA
16:00 -0.4 -11.7 42   LegendMM LegendMM   101.20     LegendNANA
17:00 -0.9 -11.2 45   LegendMM LegendMM   101.24     LegendNANA
18:00 -1.2 -10.5 49   LegendMM LegendMM   101.23     LegendNANA
19:00 -1.1 -9.9 51   LegendMM LegendMM   101.17     LegendNANA
20:00 -1.2 -9.5 53   LegendMM LegendMM   101.10     LegendNANA
21:00 -1.0 -8.2 58   LegendMM LegendMM   101.03     LegendNANA
22:00 -1.1 -7.4 62   LegendMM LegendMM   100.94     LegendNANA
23:00 -1.2 -10.0 51   LegendMM LegendMM   100.94     LegendNANA

Notes on Data Quality.

Legend

  • E = Estimated
  • M = Missing
  • NA = Not Available*
  • [empty] = Indicates an unobserved value
Date modified: